Regional Weather Roundup
Issued by NWS Sterling, VA

Home | Current Version | Previous Version | Graphics & Text | Print | Product List | Glossary On
Versions: 1 2 3 4 5 6 7 8 9 10 11 12 13 14 15 16 17 18 19 20 21 22 23 24 25 26 27
000
ASUS41 KLWX 220311
RWRLWX

REGIONAL WEATHER ROUNDUP
NATIONAL WEATHER SERVICE BALTIMORE MD/WASHINGTON DC
1100 PM EDT SAT OCT 21 2017

Note: "FAIR" indicates few or no clouds below 12,000 feet
with no significant weather and/or obstructions to visibility.
 TC=TEMPERATURE CELSIUS

 * =Non NWS site. Station does not report precipitation (e.g. rain,
    snow, etc.), thunder, or fog.

DCZ001-MDZ009-015-VAZ040>042-051-053>054-220400-
WASHINGTON METRO

CITY           SKY/WX    TMP DP  RH WIND       PRES   REMARKS
WASHINGTON NAT MOCLDY    62  50  64 CALM      30.37R
DULLES         PTCLDY    52  47  83 CALM      30.36S
ANDREWS AFB    CLEAR     58  44  59 CALM      30.35S
FT BELVOIR     CLEAR     52  50  94 CALM      30.36S
QUANTICO       CLOUDY    55  54  96 NW8       30.37S
COLLEGE PARK*  CLEAR     51  48  90 CALM      30.36S
LEESBURG*      CLEAR     55  52  88 CALM      30.37S
MANASSAS*      CLOUDY    49  48  97 CALM      30.37R
GAITHERSBURG*  CLEAR     52  45  77 CALM      30.37S

$$

MDZ006>007-011-014-220400-
BALTIMORE METRO

CITY           SKY/WX    TMP DP  RH WIND       PRES   REMARKS
BWI AIRPORT    PTCLDY    52  50  93 CALM      30.36S
MD SCIENCE CTR   N/A     64  48  56 MISG      30.37R
MARTIN STATE   CLEAR     54  54 100 CALM      30.38S
ANNAPOLIS      CLEAR     59  56  89 CALM      30.36S
FORT MEADE*    CLEAR     48  46  93 CALM      30.39R

$$

MDZ012-015-019>023-220400-
MARYLAND EASTERN SHORE

CITY           SKY/WX    TMP DP  RH WIND       PRES   REMARKS
OCEAN CITY     PTCLDY    55  55 100 CALM      30.38S
SALISBURY      MOCLDY    55  54  96 CALM      30.37S
CAMBRIDGE*     CLEAR     54  50  87 CALM      30.37S
EASTON*        MOCLDY    57  51  79 CALM      30.40F

$$

MDZ017>025-220400-
SOUTHERN MARYLAND

CITY           SKY/WX    TMP DP  RH WIND       PRES   REMARKS
PATUXENT RIVER CLOUDY    52  49  89 CALM      30.36S
ST INIGOES     PTCLDY    53  50  89 CALM      30.36R
LEONARDTOWN*   NOT AVBL

$$

MDZ003>005-220400-
NORTH CENTRAL MARYLAND

CITY           SKY/WX    TMP DP  RH WIND       PRES   REMARKS
FREDERICK*     PTCLDY    52  52 100 CALM      30.39S
HAGERSTOWN APT PTCLDY    61  45  55 CALM      30.35S
WESTMINSTER*   CLEAR     57  46  67 S3        30.37S

$$

MDZ501>502-220400-
WESTERN MARYLAND

CITY           SKY/WX    TMP DP  RH WIND       PRES   REMARKS
OAKLAND*       CLOUDY    54  45  71 SE9       30.34S
CUMBERLAND*    PTCLDY    59  52  77 CALM      30.37S

$$

VAZ025>031-220400-
SHENANDOAH VALLEY

CITY           SKY/WX    TMP DP  RH WIND       PRES   REMARKS
WINCHESTER*    PTCLDY    52  45  76 CALM      30.35S
FRONT ROYAL*   PTCLDY    57  46  67 CALM      30.33F
LURAY*         PTCLDY    55  52  88 CALM      30.35F
NEW MARKET*    MOCLDY    54  49  84 CALM      30.35S
STAUNTON*      PTCLDY    53  49  85 CALM      30.37S
WAYNESBORO*    PTCLDY    59  52  77 S12       30.37S

$$

WVZ021-048>050-054>055-220400-
EASTERN WEST VIRGINIA PANHANDLE

CITY           SKY/WX    TMP DP  RH WIND       PRES   REMARKS
MARTINSBURG    PTCLDY    51  46  83 CALM      30.34S
PETERSBURG*    CLOUDY    52  51  95 CALM      30.34S

$$

VAZ036>039-050-220400-
CENTRAL FOOTHILLS

CITY           SKY/WX    TMP DP  RH WIND       PRES   REMARKS
CHARLOTTESVILL CLOUDY    60  54  80 N5        30.35S
CULPEPER*      CLEAR     53  47  81 CALM      30.37S
ORANGE*        CLEAR     52  50  93 CALM      30.36S
GORDONSVILLE*  CLEAR     52  52  99 CALM      30.35S
WARRENTON*     PTCLDY    48  43  84 CALM      30.36S

$$

VAZ055>057-220400-
NORTH AND CENTRAL PIEDMONT

CITY           SKY/WX    TMP DP  RH WIND       PRES   REMARKS
FREDERICKSBRG* CLEAR     55  51  89 CALM      30.35S
STAFFORD*      CLEAR     49  49 100 CALM      30.40S

$$

NCZ024-NYZ072-PAZ021-071-VAZ022-071-220400-
OTHER REGIONAL OBSERVATIONS

CITY           SKY/WX    TMP DP  RH WIND       PRES   REMARKS
NEW YORK CITY  CLEAR     67  46  47 VRB6      30.38S
PHILADELPHIA   MOCLDY    60  47  61 CALM      30.37S
PITTSBURGH     CLOUDY    58  53  84 CALM      30.28S
ROANOKE        CLOUDY    60  54  80 CALM      30.37S
RICHMOND       CLOUDY    59  52  77 CALM      30.36S
RALEIGH        MOCLDY    58  55  90 CALM      30.35S

$$

ANZ530>537-220400-
MARINE OBSERVATIONS

STATION/POSITION TIME  TEMP    WIND        PRES
                       AIR SEA DIR/SP/G
                 (UTC) (F)     (DEG/KT/KT) (MB)
THOMAS PT LIGHT  0300   66 67  130/  6/  6   N/A
BALT KEY BRIDGE  0248   63     270/  2/  3 1028.1R
COVE POINT       0248   68     170/  9/ 12 1028.7S
LEWISETTA        0248   60 67  270/  3/  3 1028.0R
SOLOMONS ISLAND  0248   61 69  320/  2/  2 1027.8R
PINEY POINT      0206          210/  3/  3   N/A

$$





USA.gov is the U.S. government's official web portal to all federal, state and local government web resources and services.